owner,sensor,date,latitude,longitude,air_pressure(mBar),qcFlag 
WAVCIS,ioos:station:WAVCIS:CSI06:1,2009-04-01T00:00:00Z,28.8667,-90.4833,1007.62,11111222 
WAVCIS,ioos:station:WAVCIS:CSI06:1,2009-04-01T01:00:00Z,28.8667,-90.4833,1007.46,11111222 
WAVCIS,ioos:station:WAVCIS:CSI06:1,2009-04-01T02:00:00Z,28.8667,-90.4833,1007.5,11111222 
WAVCIS,ioos:station:WAVCIS:CSI06:1,2009-04-01T03:00:00Z,28.8667,-90.4833,1007.98,11111222 
WAVCIS,ioos:station:WAVCIS:CSI06:1,2009-04-01T04:00:00Z,28.8667,-90.4833,1008.46,11111222 
WAVCIS,ioos:station:WAVCIS:CSI06:1,2009-04-01T05:00:00Z,28.8667,-90.4833,1007.93,11111222 
WAVCIS,ioos:station:WAVCIS:CSI06:1,2009-04-01T06:00:00Z,28.8667,-90.4833,1008.38,11111222 
WAVCIS,ioos:station:WAVCIS:CSI06:1,2009-04-01T07:00:00Z,28.8667,-90.4833,1007.56,11111222 
WAVCIS,ioos:station:WAVCIS:CSI06:1,2009-04-01T08:00:00Z,28.8667,-90.4833,1007.97,11111222 
WAVCIS,ioos:station:WAVCIS:CSI06:1,2009-04-01T09:00:00Z,28.8667,-90.4833,1008.59,11111222 
WAVCIS,ioos:station:WAVCIS:CSI06:1,2009-04-01T10:00:00Z,28.8667,-90.4833,1009.15,11111222 
WAVCIS,ioos:station:WAVCIS:CSI06:1,2009-04-01T11:00:00Z,28.8667,-90.4833,1009.18,11111222 
WAVCIS,ioos:station:WAVCIS:CSI06:1,2009-04-01T12:00:00Z,28.8667,-90.4833,1010.36,11111222 
WAVCIS,ioos:station:WAVCIS:CSI06:1,2009-04-01T13:00:00Z,28.8667,-90.4833,1011.25,11111222 
WAVCIS,ioos:station:WAVCIS:CSI06:1,2009-04-01T14:00:00Z,28.8667,-90.4833,1009.82,11111222 
WAVCIS,ioos:station:WAVCIS:CSI06:1,2009-04-01T15:00:00Z,28.8667,-90.4833,1008.67,11111222 
WAVCIS,ioos:station:WAVCIS:CSI06:1,2009-04-01T16:00:00Z,28.8667,-90.4833,1010.53,11111222 
WAVCIS,ioos:station:WAVCIS:CSI06:1,2009-04-01T17:00:00Z,28.8667,-90.4833,1010.07,11111222 
WAVCIS,ioos:station:WAVCIS:CSI06:1,2009-04-01T18:00:00Z,28.8667,-90.4833,1010.12,11111222 
WAVCIS,ioos:station:WAVCIS:CSI06:1,2009-04-01T19:00:00Z,28.8667,-90.4833,1009.43,11111222 
WAVCIS,ioos:station:WAVCIS:CSI06:1,2009-04-01T20:00:00Z,28.8667,-90.4833,1007.58,11111222 
WAVCIS,ioos:station:WAVCIS:CSI06:1,2009-04-01T21:00:00Z,28.8667,-90.4833,1007.49,11111222 
WAVCIS,ioos:station:WAVCIS:CSI06:1,2009-04-01T22:00:00Z,28.8667,-90.4833,1007.74,11111222 
WAVCIS,ioos:station:WAVCIS:CSI06:1,2009-04-01T23:00:00Z,28.8667,-90.4833,1007.31,11111222 
WAVCIS,ioos:station:WAVCIS:CSI06:1,2009-04-02T00:00:00Z,28.8667,-90.4833,1006.123,11111222 
WAVCIS,ioos:station:WAVCIS:CSI06:1,2009-04-02T01:00:00Z,28.8667,-90.4833,1006.539,11111222 
WAVCIS,ioos:station:WAVCIS:CSI06:1,2009-04-02T02:00:00Z,28.8667,-90.4833,1007.32,11111222 
WAVCIS,ioos:station:WAVCIS:CSI06:1,2009-04-02T03:00:00Z,28.8667,-90.4833,1007.17,11111222 
WAVCIS,ioos:station:WAVCIS:CSI06:1,2009-04-02T04:00:00Z,28.8667,-90.4833,1006.789,11111222 
WAVCIS,ioos:station:WAVCIS:CSI06:1,2009-04-02T05:00:00Z,28.8667,-90.4833,1005.463,11111222 
WAVCIS,ioos:station:WAVCIS:CSI06:1,2009-04-02T06:00:00Z,28.8667,-90.4833,1006.632,11111222 
WAVCIS,ioos:station:WAVCIS:CSI06:1,2009-04-02T07:00:00Z,28.8667,-90.4833,1005.288,11111222 
WAVCIS,ioos:station:WAVCIS:CSI06:1,2009-04-02T08:00:00Z,28.8667,-90.4833,1005.086,11111222 
WAVCIS,ioos:station:WAVCIS:CSI06:1,2009-04-02T09:00:00Z,28.8667,-90.4833,1004.439,11111222 
WAVCIS,ioos:station:WAVCIS:CSI06:1,2009-04-02T10:00:00Z,28.8667,-90.4833,1005.253,11111222 
WAVCIS,ioos:station:WAVCIS:CSI06:1,2009-04-02T11:00:00Z,28.8667,-90.4833,1003.025,11111222 
WAVCIS,ioos:station:WAVCIS:CSI06:1,2009-04-02T12:00:00Z,28.8667,-90.4833,1002.407,11111222 
WAVCIS,ioos:station:WAVCIS:CSI06:1,2009-04-02T13:00:00Z,28.8667,-90.4833,1003.362,11111222 
WAVCIS,ioos:station:WAVCIS:CSI06:1,2009-04-02T14:00:00Z,28.8667,-90.4833,1003.52,11111222 
WAVCIS,ioos:station:WAVCIS:CSI06:1,2009-04-02T15:00:00Z,28.8667,-90.4833,1002.526,11111222 
WAVCIS,ioos:station:WAVCIS:CSI06:1,2009-04-02T16:00:00Z,28.8667,-90.4833,1001.675,11111222 
WAVCIS,ioos:station:WAVCIS:CSI06:1,2009-04-02T17:00:00Z,28.8667,-90.4833,1000.505,11111222 
WAVCIS,ioos:station:WAVCIS:CSI06:1,2009-04-02T18:00:00Z,28.8667,-90.4833,1000.76,11111222 
WAVCIS,ioos:station:WAVCIS:CSI06:1,2009-04-02T19:00:00Z,28.8667,-90.4833,1001.487,11111222 
WAVCIS,ioos:station:WAVCIS:CSI06:1,2009-04-02T20:00:00Z,28.8667,-90.4833,1000.002,11111222 
WAVCIS,ioos:station:WAVCIS:CSI06:1,2009-04-02T21:00:00Z,28.8667,-90.4833,999.495,11111222 
WAVCIS,ioos:station:WAVCIS:CSI06:1,2009-04-02T22:00:00Z,28.8667,-90.4833,999.779,11111222 
WAVCIS,ioos:station:WAVCIS:CSI06:1,2009-04-02T23:00:00Z,28.8667,-90.4833,1000.384,11111222 
WAVCIS,ioos:station:WAVCIS:CSI06:1,2009-04-03T00:00:00Z,28.8667,-90.4833,1001.092,11111222 
WAVCIS,ioos:station:WAVCIS:CSI06:1,2009-04-03T01:00:00Z,28.8667,-90.4833,1001.928,11111222 
WAVCIS,ioos:station:WAVCIS:CSI06:1,2009-04-03T02:00:00Z,28.8667,-90.4833,1003.184,11111222 
WAVCIS,ioos:station:WAVCIS:CSI06:1,2009-04-03T03:00:00Z,28.8667,-90.4833,1004.402,11111222 
WAVCIS,ioos:station:WAVCIS:CSI06:1,2009-04-03T04:00:00Z,28.8667,-90.4833,1005.131,11111222 
WAVCIS,ioos:station:WAVCIS:CSI06:1,2009-04-03T05:00:00Z,28.8667,-90.4833,1005.705,11111222 
WAVCIS,ioos:station:WAVCIS:CSI06:1,2009-04-03T06:00:00Z,28.8667,-90.4833,1006.159,11111222 
WAVCIS,ioos:station:WAVCIS:CSI06:1,2009-04-03T07:00:00Z,28.8667,-90.4833,1006.585,11111222 
WAVCIS,ioos:station:WAVCIS:CSI06:1,2009-04-03T08:00:00Z,28.8667,-90.4833,1006.77,11111222 
WAVCIS,ioos:station:WAVCIS:CSI06:1,2009-04-03T09:00:00Z,28.8667,-90.4833,1007.037,11111222 
WAVCIS,ioos:station:WAVCIS:CSI06:1,2009-04-03T10:00:00Z,28.8667,-90.4833,1007.72,11111222 
WAVCIS,ioos:station:WAVCIS:CSI06:1,2009-04-03T11:00:00Z,28.8667,-90.4833,1008.5,11111222 
WAVCIS,ioos:station:WAVCIS:CSI06:1,2009-04-03T12:00:00Z,28.8667,-90.4833,1009.05,11111222 
WAVCIS,ioos:station:WAVCIS:CSI06:1,2009-04-03T13:00:00Z,28.8667,-90.4833,1009.62,11111222 
WAVCIS,ioos:station:WAVCIS:CSI06:1,2009-04-03T14:00:00Z,28.8667,-90.4833,1010.22,11111222 
WAVCIS,ioos:station:WAVCIS:CSI06:1,2009-04-03T15:00:00Z,28.8667,-90.4833,1010.64,11111222 
WAVCIS,ioos:station:WAVCIS:CSI06:1,2009-04-03T16:00:00Z,28.8667,-90.4833,1011.37,11111222 
WAVCIS,ioos:station:WAVCIS:CSI06:1,2009-04-03T17:00:00Z,28.8667,-90.4833,1011.67,11111222 
WAVCIS,ioos:station:WAVCIS:CSI06:1,2009-04-03T18:00:00Z,28.8667,-90.4833,1011.71,11111222 
WAVCIS,ioos:station:WAVCIS:CSI06:1,2009-04-03T19:00:00Z,28.8667,-90.4833,1011.55,11111222 
WAVCIS,ioos:station:WAVCIS:CSI06:1,2009-04-03T20:00:00Z,28.8667,-90.4833,1010.92,11111222 
WAVCIS,ioos:station:WAVCIS:CSI06:1,2009-04-03T21:00:00Z,28.8667,-90.4833,1010.53,11111222 
WAVCIS,ioos:station:WAVCIS:CSI06:1,2009-04-03T22:00:00Z,28.8667,-90.4833,1010.15,11111222 
WAVCIS,ioos:station:WAVCIS:CSI06:1,2009-04-03T23:00:00Z,28.8667,-90.4833,1010.47,11111222 
WAVCIS,ioos:station:WAVCIS:CSI06:1,2009-04-04T00:00:00Z,28.8667,-90.4833,1010.84,11111222 
WAVCIS,ioos:station:WAVCIS:CSI06:1,2009-04-04T01:00:00Z,28.8667,-90.4833,1011.45,11111222 
WAVCIS,ioos:station:WAVCIS:CSI06:1,2009-04-04T02:00:00Z,28.8667,-90.4833,1011.64,11111222 
WAVCIS,ioos:station:WAVCIS:CSI06:1,2009-04-04T03:00:00Z,28.8667,-90.4833,1011.92,11111222 
WAVCIS,ioos:station:WAVCIS:CSI06:1,2009-04-04T04:00:00Z,28.8667,-90.4833,1011.92,11111222 
WAVCIS,ioos:station:WAVCIS:CSI06:1,2009-04-04T05:00:00Z,28.8667,-90.4833,1011.58,11111222 
WAVCIS,ioos:station:WAVCIS:CSI06:1,2009-04-04T06:00:00Z,28.8667,-90.4833,1011.56,11111222 
WAVCIS,ioos:station:WAVCIS:CSI06:1,2009-04-04T07:00:00Z,28.8667,-90.4833,1011.32,11111222 
WAVCIS,ioos:station:WAVCIS:CSI06:1,2009-04-04T08:00:00Z,28.8667,-90.4833,1011.03,11111222 
WAVCIS,ioos:station:WAVCIS:CSI06:1,2009-04-04T09:00:00Z,28.8667,-90.4833,1010.99,11111222 
WAVCIS,ioos:station:WAVCIS:CSI06:1,2009-04-04T10:00:00Z,28.8667,-90.4833,1010.85,11111222 
WAVCIS,ioos:station:WAVCIS:CSI06:1,2009-04-04T11:00:00Z,28.8667,-90.4833,1011.15,11111222 
WAVCIS,ioos:station:WAVCIS:CSI06:1,2009-04-04T12:00:00Z,28.8667,-90.4833,1011.35,11111222 
WAVCIS,ioos:station:WAVCIS:CSI06:1,2009-04-04T13:00:00Z,28.8667,-90.4833,1012.22,11111222 
WAVCIS,ioos:station:WAVCIS:CSI06:1,2009-04-04T14:00:00Z,28.8667,-90.4833,1012.87,11111222 
WAVCIS,ioos:station:WAVCIS:CSI06:1,2009-04-04T15:00:00Z,28.8667,-90.4833,1013.2,11111222 
WAVCIS,ioos:station:WAVCIS:CSI06:1,2009-04-04T16:00:00Z,28.8667,-90.4833,1013.52,11111222 
WAVCIS,ioos:station:WAVCIS:CSI06:1,2009-04-04T17:00:00Z,28.8667,-90.4833,1013.16,11111222 
WAVCIS,ioos:station:WAVCIS:CSI06:1,2009-04-04T18:00:00Z,28.8667,-90.4833,1012.85,11111222 
WAVCIS,ioos:station:WAVCIS:CSI06:1,2009-04-04T19:00:00Z,28.8667,-90.4833,1011.6,11111222 
WAVCIS,ioos:station:WAVCIS:CSI06:1,2009-04-04T20:00:00Z,28.8667,-90.4833,1010.83,11111222 
WAVCIS,ioos:station:WAVCIS:CSI06:1,2009-04-04T21:00:00Z,28.8667,-90.4833,1010.6,11111222 
WAVCIS,ioos:station:WAVCIS:CSI06:1,2009-04-04T22:00:00Z,28.8667,-90.4833,1009.78,11111222 
WAVCIS,ioos:station:WAVCIS:CSI06:1,2009-04-04T23:00:00Z,28.8667,-90.4833,1009.68,11111222 
WAVCIS,ioos:station:WAVCIS:CSI06:1,2009-04-05T00:00:00Z,28.8667,-90.4833,1009.82,11111222 
WAVCIS,ioos:station:WAVCIS:CSI06:1,2009-04-05T01:00:00Z,28.8667,-90.4833,1009.93,11111222 
WAVCIS,ioos:station:WAVCIS:CSI06:1,2009-04-05T02:00:00Z,28.8667,-90.4833,1010.32,11111222 
WAVCIS,ioos:station:WAVCIS:CSI06:1,2009-04-05T03:00:00Z,28.8667,-90.4833,1011.42,11111222 
WAVCIS,ioos:station:WAVCIS:CSI06:1,2009-04-05T04:00:00Z,28.8667,-90.4833,1011.93,11111222 
WAVCIS,ioos:station:WAVCIS:CSI06:1,2009-04-05T05:00:00Z,28.8667,-90.4833,1010.37,11111222 
WAVCIS,ioos:station:WAVCIS:CSI06:1,2009-04-05T06:00:00Z,28.8667,-90.4833,1010.95,11111222 
WAVCIS,ioos:station:WAVCIS:CSI06:1,2009-04-05T07:00:00Z,28.8667,-90.4833,1009.41,11111222 
WAVCIS,ioos:station:WAVCIS:CSI06:1,2009-04-05T08:00:00Z,28.8667,-90.4833,1009.54,11111222 
WAVCIS,ioos:station:WAVCIS:CSI06:1,2009-04-05T09:00:00Z,28.8667,-90.4833,1009.86,11111222 
WAVCIS,ioos:station:WAVCIS:CSI06:1,2009-04-05T10:00:00Z,28.8667,-90.4833,1009.97,11111222 
WAVCIS,ioos:station:WAVCIS:CSI06:1,2009-04-05T11:00:00Z,28.8667,-90.4833,1010.33,11111222 
WAVCIS,ioos:station:WAVCIS:CSI06:1,2009-04-05T12:00:00Z,28.8667,-90.4833,1010.9,11111222 
WAVCIS,ioos:station:WAVCIS:CSI06:1,2009-04-05T13:00:00Z,28.8667,-90.4833,1010.79,11111222 
WAVCIS,ioos:station:WAVCIS:CSI06:1,2009-04-05T14:00:00Z,28.8667,-90.4833,1009.77,11111222 
WAVCIS,ioos:station:WAVCIS:CSI06:1,2009-04-05T15:00:00Z,28.8667,-90.4833,1009.58,11111222 
WAVCIS,ioos:station:WAVCIS:CSI06:1,2009-04-05T16:00:00Z,28.8667,-90.4833,1010.84,11111222 
WAVCIS,ioos:station:WAVCIS:CSI06:1,2009-04-05T17:00:00Z,28.8667,-90.4833,1011.89,11111222 
WAVCIS,ioos:station:WAVCIS:CSI06:1,2009-04-05T18:00:00Z,28.8667,-90.4833,1010.59,11111222 
WAVCIS,ioos:station:WAVCIS:CSI06:1,2009-04-05T19:00:00Z,28.8667,-90.4833,1010.16,11111222 
WAVCIS,ioos:station:WAVCIS:CSI06:1,2009-04-05T20:00:00Z,28.8667,-90.4833,1010.62,11111222 
WAVCIS,ioos:station:WAVCIS:CSI06:1,2009-04-05T21:00:00Z,28.8667,-90.4833,1011.13,11111222 
WAVCIS,ioos:station:WAVCIS:CSI06:1,2009-04-05T22:00:00Z,28.8667,-90.4833,1010.9,11111222 
WAVCIS,ioos:station:WAVCIS:CSI06:1,2009-04-05T23:00:00Z,28.8667,-90.4833,1009.77,11111222 
WAVCIS,ioos:station:WAVCIS:CSI06:1,2009-04-06T00:00:00Z,28.8667,-90.4833,1009.24,11111222 
WAVCIS,ioos:station:WAVCIS:CSI06:1,2009-04-06T01:00:00Z,28.8667,-90.4833,1009.0,11111222 
WAVCIS,ioos:station:WAVCIS:CSI06:1,2009-04-06T02:00:00Z,28.8667,-90.4833,1009.13,11111222 
WAVCIS,ioos:station:WAVCIS:CSI06:1,2009-04-06T03:00:00Z,28.8667,-90.4833,1009.14,11111222 
WAVCIS,ioos:station:WAVCIS:CSI06:1,2009-04-06T04:00:00Z,28.8667,-90.4833,1009.46,11111222 
WAVCIS,ioos:station:WAVCIS:CSI06:1,2009-04-06T05:00:00Z,28.8667,-90.4833,1012.39,11111222 
WAVCIS,ioos:station:WAVCIS:CSI06:1,2009-04-06T06:00:00Z,28.8667,-90.4833,1013.0,11111222 
WAVCIS,ioos:station:WAVCIS:CSI06:1,2009-04-06T07:00:00Z,28.8667,-90.4833,1013.63,11111222 
WAVCIS,ioos:station:WAVCIS:CSI06:1,2009-04-06T08:00:00Z,28.8667,-90.4833,1013.78,11111222 
WAVCIS,ioos:station:WAVCIS:CSI06:1,2009-04-06T09:00:00Z,28.8667,-90.4833,1014.06,11111222 
WAVCIS,ioos:station:WAVCIS:CSI06:1,2009-04-06T10:00:00Z,28.8667,-90.4833,1014.72,11111222 
WAVCIS,ioos:station:WAVCIS:CSI06:1,2009-04-06T11:00:00Z,28.8667,-90.4833,1015.78,11111222 
WAVCIS,ioos:station:WAVCIS:CSI06:1,2009-04-06T12:00:00Z,28.8667,-90.4833,1017.31,11111222 
WAVCIS,ioos:station:WAVCIS:CSI06:1,2009-04-06T13:00:00Z,28.8667,-90.4833,1018.43,11111222 
WAVCIS,ioos:station:WAVCIS:CSI06:1,2009-04-06T14:00:00Z,28.8667,-90.4833,1019.45,11111222 
WAVCIS,ioos:station:WAVCIS:CSI06:1,2009-04-06T15:00:00Z,28.8667,-90.4833,1019.94,11111222 
WAVCIS,ioos:station:WAVCIS:CSI06:1,2009-04-06T16:00:00Z,28.8667,-90.4833,1019.94,11111222 
WAVCIS,ioos:station:WAVCIS:CSI06:1,2009-04-06T17:00:00Z,28.8667,-90.4833,1019.68,11111222 
WAVCIS,ioos:station:WAVCIS:CSI06:1,2009-04-06T18:00:00Z,28.8667,-90.4833,1019.2,11111222 
WAVCIS,ioos:station:WAVCIS:CSI06:1,2009-04-06T19:00:00Z,28.8667,-90.4833,1018.57,11111222 
WAVCIS,ioos:station:WAVCIS:CSI06:1,2009-04-06T20:00:00Z,28.8667,-90.4833,1017.88,11111222 
WAVCIS,ioos:station:WAVCIS:CSI06:1,2009-04-06T21:00:00Z,28.8667,-90.4833,1017.46,11111222 
WAVCIS,ioos:station:WAVCIS:CSI06:1,2009-04-06T22:00:00Z,28.8667,-90.4833,1017.79,11111222 
WAVCIS,ioos:station:WAVCIS:CSI06:1,2009-04-06T23:00:00Z,28.8667,-90.4833,1018.22,11111222 
WAVCIS,ioos:station:WAVCIS:CSI06:1,2009-04-07T00:00:00Z,28.8667,-90.4833,1018.44,11111222 
WAVCIS,ioos:station:WAVCIS:CSI06:1,2009-04-07T01:00:00Z,28.8667,-90.4833,1019.2,11111222 
WAVCIS,ioos:station:WAVCIS:CSI06:1,2009-04-07T02:00:00Z,28.8667,-90.4833,1020.24,11111222 
WAVCIS,ioos:station:WAVCIS:CSI06:1,2009-04-07T03:00:00Z,28.8667,-90.4833,1020.98,11111222 
WAVCIS,ioos:station:WAVCIS:CSI06:1,2009-04-07T04:00:00Z,28.8667,-90.4833,1021.79,11111222 
WAVCIS,ioos:station:WAVCIS:CSI06:1,2009-04-07T05:00:00Z,28.8667,-90.4833,1022.6,11111222 
WAVCIS,ioos:station:WAVCIS:CSI06:1,2009-04-07T06:00:00Z,28.8667,-90.4833,1023.14,11111222 
WAVCIS,ioos:station:WAVCIS:CSI06:1,2009-04-07T07:00:00Z,28.8667,-90.4833,1023.2,11111222 
WAVCIS,ioos:station:WAVCIS:CSI06:1,2009-04-07T08:00:00Z,28.8667,-90.4833,1022.81,11111222 
WAVCIS,ioos:station:WAVCIS:CSI06:1,2009-04-07T09:00:00Z,28.8667,-90.4833,1022.49,11111222 
WAVCIS,ioos:station:WAVCIS:CSI06:1,2009-04-07T10:00:00Z,28.8667,-90.4833,1022.99,11111222 
WAVCIS,ioos:station:WAVCIS:CSI06:1,2009-04-07T11:00:00Z,28.8667,-90.4833,1023.52,11111222 
WAVCIS,ioos:station:WAVCIS:CSI06:1,2009-04-07T12:00:00Z,28.8667,-90.4833,1023.9,11111222 
WAVCIS,ioos:station:WAVCIS:CSI06:1,2009-04-07T13:00:00Z,28.8667,-90.4833,1024.46,11111222 
WAVCIS,ioos:station:WAVCIS:CSI06:1,2009-04-07T14:00:00Z,28.8667,-90.4833,1025.23,11111222 
WAVCIS,ioos:station:WAVCIS:CSI06:1,2009-04-07T15:00:00Z,28.8667,-90.4833,1025.5,11111222 
WAVCIS,ioos:station:WAVCIS:CSI06:1,2009-04-07T16:00:00Z,28.8667,-90.4833,1025.34,11111222 
WAVCIS,ioos:station:WAVCIS:CSI06:1,2009-04-07T17:00:00Z,28.8667,-90.4833,1024.8,11111222 
WAVCIS,ioos:station:WAVCIS:CSI06:1,2009-04-07T18:00:00Z,28.8667,-90.4833,1023.88,11111222 
WAVCIS,ioos:station:WAVCIS:CSI06:1,2009-04-07T19:00:00Z,28.8667,-90.4833,1023.34,11111222 
WAVCIS,ioos:station:WAVCIS:CSI06:1,2009-04-07T20:00:00Z,28.8667,-90.4833,1022.98,11111222 
WAVCIS,ioos:station:WAVCIS:CSI06:1,2009-04-07T21:00:00Z,28.8667,-90.4833,1022.38,11111222 
WAVCIS,ioos:station:WAVCIS:CSI06:1,2009-04-07T22:00:00Z,28.8667,-90.4833,1022.11,11111222 
WAVCIS,ioos:station:WAVCIS:CSI06:1,2009-04-07T23:00:00Z,28.8667,-90.4833,1021.6,11111222 
WAVCIS,ioos:station:WAVCIS:CSI06:1,2009-04-08T00:00:00Z,28.8667,-90.4833,1021.31,11111222 
WAVCIS,ioos:station:WAVCIS:CSI06:1,2009-04-08T01:00:00Z,28.8667,-90.4833,1021.29,11111222 
WAVCIS,ioos:station:WAVCIS:CSI06:1,2009-04-08T02:00:00Z,28.8667,-90.4833,1021.33,11111222 
WAVCIS,ioos:station:WAVCIS:CSI06:1,2009-04-08T03:00:00Z,28.8667,-90.4833,1021.86,11111222 
WAVCIS,ioos:station:WAVCIS:CSI06:1,2009-04-08T04:00:00Z,28.8667,-90.4833,1021.77,11111222 
WAVCIS,ioos:station:WAVCIS:CSI06:1,2009-04-08T05:00:00Z,28.8667,-90.4833,1021.06,11111222 
WAVCIS,ioos:station:WAVCIS:CSI06:1,2009-04-08T06:00:00Z,28.8667,-90.4833,1020.72,11111222 
WAVCIS,ioos:station:WAVCIS:CSI06:1,2009-04-08T07:00:00Z,28.8667,-90.4833,1020.33,11111222 
WAVCIS,ioos:station:WAVCIS:CSI06:1,2009-04-08T08:00:00Z,28.8667,-90.4833,1019.75,11111222 
WAVCIS,ioos:station:WAVCIS:CSI06:1,2009-04-08T09:00:00Z,28.8667,-90.4833,1019.5,11111222 
WAVCIS,ioos:station:WAVCIS:CSI06:1,2009-04-08T10:00:00Z,28.8667,-90.4833,1019.07,11111222 
WAVCIS,ioos:station:WAVCIS:CSI06:1,2009-04-08T11:00:00Z,28.8667,-90.4833,1018.91,11111222 
WAVCIS,ioos:station:WAVCIS:CSI06:1,2009-04-08T12:00:00Z,28.8667,-90.4833,1019.55,11111222 
WAVCIS,ioos:station:WAVCIS:CSI06:1,2009-04-08T13:00:00Z,28.8667,-90.4833,1020.01,11111222 
WAVCIS,ioos:station:WAVCIS:CSI06:1,2009-04-08T14:00:00Z,28.8667,-90.4833,1020.42,11111222 
WAVCIS,ioos:station:WAVCIS:CSI06:1,2009-04-08T15:00:00Z,28.8667,-90.4833,1020.74,11111222 
WAVCIS,ioos:station:WAVCIS:CSI06:1,2009-04-08T16:00:00Z,28.8667,-90.4833,1020.91,11111222 
WAVCIS,ioos:station:WAVCIS:CSI06:1,2009-04-08T17:00:00Z,28.8667,-90.4833,1020.43,11111222 
WAVCIS,ioos:station:WAVCIS:CSI06:1,2009-04-08T18:00:00Z,28.8667,-90.4833,1019.67,11111222 
WAVCIS,ioos:station:WAVCIS:CSI06:1,2009-04-08T19:00:00Z,28.8667,-90.4833,1019.05,11111222 
WAVCIS,ioos:station:WAVCIS:CSI06:1,2009-04-08T20:00:00Z,28.8667,-90.4833,1018.0,11111222 
WAVCIS,ioos:station:WAVCIS:CSI06:1,2009-04-08T21:00:00Z,28.8667,-90.4833,1017.1,11111222 
WAVCIS,ioos:station:WAVCIS:CSI06:1,2009-04-08T22:00:00Z,28.8667,-90.4833,1016.5,11111222 
WAVCIS,ioos:station:WAVCIS:CSI06:1,2009-04-08T23:00:00Z,28.8667,-90.4833,1016.06,11111222 
WAVCIS,ioos:station:WAVCIS:CSI06:1,2009-04-09T00:00:00Z,28.8667,-90.4833,1015.69,11111222 
WAVCIS,ioos:station:WAVCIS:CSI06:1,2009-04-09T01:00:00Z,28.8667,-90.4833,1015.18,11111222 
WAVCIS,ioos:station:WAVCIS:CSI06:1,2009-04-09T02:00:00Z,28.8667,-90.4833,1015.33,11111222 
WAVCIS,ioos:station:WAVCIS:CSI06:1,2009-04-09T03:00:00Z,28.8667,-90.4833,1015.92,11111222 
WAVCIS,ioos:station:WAVCIS:CSI06:1,2009-04-09T04:00:00Z,28.8667,-90.4833,1015.85,11111222 
WAVCIS,ioos:station:WAVCIS:CSI06:1,2009-04-09T05:00:00Z,28.8667,-90.4833,1015.67,11111222 
WAVCIS,ioos:station:WAVCIS:CSI06:1,2009-04-09T06:00:00Z,28.8667,-90.4833,1015.35,11111222 
WAVCIS,ioos:station:WAVCIS:CSI06:1,2009-04-09T07:00:00Z,28.8667,-90.4833,1014.66,11111222 
WAVCIS,ioos:station:WAVCIS:CSI06:1,2009-04-09T08:00:00Z,28.8667,-90.4833,1014.35,11111222 
WAVCIS,ioos:station:WAVCIS:CSI06:1,2009-04-09T09:00:00Z,28.8667,-90.4833,1013.77,11111222 
WAVCIS,ioos:station:WAVCIS:CSI06:1,2009-04-09T10:00:00Z,28.8667,-90.4833,1013.18,11111222 
WAVCIS,ioos:station:WAVCIS:CSI06:1,2009-04-09T11:00:00Z,28.8667,-90.4833,1013.37,11111222 
WAVCIS,ioos:station:WAVCIS:CSI06:1,2009-04-09T12:00:00Z,28.8667,-90.4833,1013.47,11111222 
WAVCIS,ioos:station:WAVCIS:CSI06:1,2009-04-09T13:00:00Z,28.8667,-90.4833,1013.9,11111222 
WAVCIS,ioos:station:WAVCIS:CSI06:1,2009-04-09T14:00:00Z,28.8667,-90.4833,1014.58,11111222 
WAVCIS,ioos:station:WAVCIS:CSI06:1,2009-04-09T15:00:00Z,28.8667,-90.4833,1014.23,11111222 
WAVCIS,ioos:station:WAVCIS:CSI06:1,2009-04-09T16:00:00Z,28.8667,-90.4833,1014.36,11111222 
WAVCIS,ioos:station:WAVCIS:CSI06:1,2009-04-09T17:00:00Z,28.8667,-90.4833,1013.95,11111222 
WAVCIS,ioos:station:WAVCIS:CSI06:1,2009-04-09T18:00:00Z,28.8667,-90.4833,1013.21,11111222 
WAVCIS,ioos:station:WAVCIS:CSI06:1,2009-04-09T19:00:00Z,28.8667,-90.4833,1012.67,11111222 
WAVCIS,ioos:station:WAVCIS:CSI06:1,2009-04-09T20:00:00Z,28.8667,-90.4833,1012.09,11111222 
WAVCIS,ioos:station:WAVCIS:CSI06:1,2009-04-09T21:00:00Z,28.8667,-90.4833,1011.78,11111222 
WAVCIS,ioos:station:WAVCIS:CSI06:1,2009-04-09T22:00:00Z,28.8667,-90.4833,1011.03,11111222 
WAVCIS,ioos:station:WAVCIS:CSI06:1,2009-04-09T23:00:00Z,28.8667,-90.4833,1010.6,11111222 
WAVCIS,ioos:station:WAVCIS:CSI06:1,2009-04-10T00:00:00Z,28.8667,-90.4833,1010.42,11111222 
WAVCIS,ioos:station:WAVCIS:CSI06:1,2009-04-10T01:00:00Z,28.8667,-90.4833,1010.9,11111222 
WAVCIS,ioos:station:WAVCIS:CSI06:1,2009-04-10T02:00:00Z,28.8667,-90.4833,1010.93,11111222 
WAVCIS,ioos:station:WAVCIS:CSI06:1,2009-04-10T03:00:00Z,28.8667,-90.4833,1011.01,11111222 
WAVCIS,ioos:station:WAVCIS:CSI06:1,2009-04-10T04:00:00Z,28.8667,-90.4833,1011.31,11111222 
WAVCIS,ioos:station:WAVCIS:CSI06:1,2009-04-10T05:00:00Z,28.8667,-90.4833,1011.0,11111222 
WAVCIS,ioos:station:WAVCIS:CSI06:1,2009-04-10T06:00:00Z,28.8667,-90.4833,1011.11,11111222 
WAVCIS,ioos:station:WAVCIS:CSI06:1,2009-04-10T07:00:00Z,28.8667,-90.4833,1011.16,11111222 
WAVCIS,ioos:station:WAVCIS:CSI06:1,2009-04-10T08:00:00Z,28.8667,-90.4833,1010.33,11111222 
WAVCIS,ioos:station:WAVCIS:CSI06:1,2009-04-10T09:00:00Z,28.8667,-90.4833,1010.86,11111222 
WAVCIS,ioos:station:WAVCIS:CSI06:1,2009-04-10T10:00:00Z,28.8667,-90.4833,1011.0,11111222 
WAVCIS,ioos:station:WAVCIS:CSI06:1,2009-04-10T11:00:00Z,28.8667,-90.4833,1010.11,11111222 
WAVCIS,ioos:station:WAVCIS:CSI06:1,2009-04-10T12:00:00Z,28.8667,-90.4833,1010.19,11111222 
WAVCIS,ioos:station:WAVCIS:CSI06:1,2009-04-10T13:00:00Z,28.8667,-90.4833,1010.76,11111222 
WAVCIS,ioos:station:WAVCIS:CSI06:1,2009-04-10T14:00:00Z,28.8667,-90.4833,1011.36,11111222 
WAVCIS,ioos:station:WAVCIS:CSI06:1,2009-04-10T15:00:00Z,28.8667,-90.4833,1011.5,11111222 
WAVCIS,ioos:station:WAVCIS:CSI06:1,2009-04-10T16:00:00Z,28.8667,-90.4833,1012.19,11111222 
WAVCIS,ioos:station:WAVCIS:CSI06:1,2009-04-10T17:00:00Z,28.8667,-90.4833,1013.06,11111222 
WAVCIS,ioos:station:WAVCIS:CSI06:1,2009-04-10T18:00:00Z,28.8667,-90.4833,1015.21,11111222 
WAVCIS,ioos:station:WAVCIS:CSI06:1,2009-04-10T19:00:00Z,28.8667,-90.4833,1014.94,11111222 
WAVCIS,ioos:station:WAVCIS:CSI06:1,2009-04-10T20:00:00Z,28.8667,-90.4833,1014.55,11111222 
WAVCIS,ioos:station:WAVCIS:CSI06:1,2009-04-10T21:00:00Z,28.8667,-90.4833,1014.87,11111222 
WAVCIS,ioos:station:WAVCIS:CSI06:1,2009-04-10T22:00:00Z,28.8667,-90.4833,1013.4,11111222 
WAVCIS,ioos:station:WAVCIS:CSI06:1,2009-04-10T23:00:00Z,28.8667,-90.4833,1013.91,11111222 
WAVCIS,ioos:station:WAVCIS:CSI06:1,2009-04-11T00:00:00Z,28.8667,-90.4833,1013.64,11111222 
WAVCIS,ioos:station:WAVCIS:CSI06:1,2009-04-11T01:00:00Z,28.8667,-90.4833,1013.45,11111222 
WAVCIS,ioos:station:WAVCIS:CSI06:1,2009-04-11T02:00:00Z,28.8667,-90.4833,1013.77,11111222 
WAVCIS,ioos:station:WAVCIS:CSI06:1,2009-04-11T03:00:00Z,28.8667,-90.4833,1014.07,11111222 
WAVCIS,ioos:station:WAVCIS:CSI06:1,2009-04-11T04:00:00Z,28.8667,-90.4833,1014.05,11111222 
WAVCIS,ioos:station:WAVCIS:CSI06:1,2009-04-11T05:00:00Z,28.8667,-90.4833,1014.13,11111222 
WAVCIS,ioos:station:WAVCIS:CSI06:1,2009-04-11T06:00:00Z,28.8667,-90.4833,1014.22,11111222 
WAVCIS,ioos:station:WAVCIS:CSI06:1,2009-04-11T07:00:00Z,28.8667,-90.4833,1014.06,11111222 
WAVCIS,ioos:station:WAVCIS:CSI06:1,2009-04-11T08:00:00Z,28.8667,-90.4833,1013.59,11111222 
WAVCIS,ioos:station:WAVCIS:CSI06:1,2009-04-11T09:00:00Z,28.8667,-90.4833,1013.46,11111222 
WAVCIS,ioos:station:WAVCIS:CSI06:1,2009-04-11T10:00:00Z,28.8667,-90.4833,1014.63,11111222 
WAVCIS,ioos:station:WAVCIS:CSI06:1,2009-04-11T11:00:00Z,28.8667,-90.4833,1014.83,11111222 
WAVCIS,ioos:station:WAVCIS:CSI06:1,2009-04-11T12:00:00Z,28.8667,-90.4833,1015.71,11111222 
WAVCIS,ioos:station:WAVCIS:CSI06:1,2009-04-11T13:00:00Z,28.8667,-90.4833,1016.91,11111222 
WAVCIS,ioos:station:WAVCIS:CSI06:1,2009-04-11T14:00:00Z,28.8667,-90.4833,1017.83,11111222 
WAVCIS,ioos:station:WAVCIS:CSI06:1,2009-04-11T15:00:00Z,28.8667,-90.4833,1018.23,11111222 
WAVCIS,ioos:station:WAVCIS:CSI06:1,2009-04-11T16:00:00Z,28.8667,-90.4833,1018.33,11111222 
WAVCIS,ioos:station:WAVCIS:CSI06:1,2009-04-11T17:00:00Z,28.8667,-90.4833,1018.2,11111222 
WAVCIS,ioos:station:WAVCIS:CSI06:1,2009-04-11T18:00:00Z,28.8667,-90.4833,1017.72,11111222 
WAVCIS,ioos:station:WAVCIS:CSI06:1,2009-04-11T19:00:00Z,28.8667,-90.4833,1017.71,11111222 
WAVCIS,ioos:station:WAVCIS:CSI06:1,2009-04-11T20:00:00Z,28.8667,-90.4833,1016.43,11111222 
WAVCIS,ioos:station:WAVCIS:CSI06:1,2009-04-11T21:00:00Z,28.8667,-90.4833,1015.67,11111222 
WAVCIS,ioos:station:WAVCIS:CSI06:1,2009-04-11T22:00:00Z,28.8667,-90.4833,1015.89,11111222 